Regional Weather Roundup
Issued by NWS

Home | Current Version | Previous Version | Graphics & Text | Print | Product List | Glossary On
Versions: 1 2 3 4 5 6 7 8 9 10 11 12 13 14 15 16 17 18 19 20 21 22 23 24 25 26 27 28 29 30 31 32 33 34 35 36 37 38 39 40 41 42 43 44 45 46 47 48 49 50
000
ASUS43 KMKX 161521
RWRWI

WISCONSIN REGIONAL WEATHER ROUNDUP
NATIONAL WEATHER SERVICE MILWAUKEE/SULLIVAN WI
1000 AM CDT TUE SEP 16 2014

NOTE: "FAIR" INDICATES FEW OR NO CLOUDS BELOW 12,000 FEET WITH NO
SIGNIFICANT WEATHER AND/OR OBSTRUCTIONS TO VISIBILITY.

WIZ001-002-006>008-014>016-023>028-161600-
NORTHWEST WISCONSIN

CITY           SKY/WX    TMP DP  RH WIND       PRES   REMARKS
SUPERIOR ARPT  SUNNY     55  42  61 W10G17    30.08F
ASHLAND        SUNNY     57  40  52 SW13G23   30.09S
HAYWARD        SUNNY     53  38  56 SW10      30.14S
SIREN          SUNNY     55  39  54 W10G16    30.14F
RICE LAKE      SUNNY     53  44  71 CALM      30.17F
LADYSMITH      SUNNY     54  43  66 SW8       30.17S
EAU CLAIRE     SUNNY     54  43  66 SW7       30.18S
MENOMONIE      SUNNY     55  44  66 S6        30.18S
NEW RICHMOND   SUNNY     55  43  64 SW7       30.17S
OSCEOLA        SUNNY     55  47  72 SW5       30.19S
$$

WIZ003>005-009-010-017-018-161600-
NORTH CENTRAL WISCONSIN

CITY           SKY/WX    TMP DP  RH WIND       PRES   REMARKS
WOODRUFF       MOSUNNY   55  40  57 W9G16     30.11F
RHINELANDER    SUNNY     53  39  59 W12       30.14F
EAGLE RIVER    MOSUNNY   53  37  54 W12       30.11S
LAND O LAKES   MOSUNNY   55  37  52 W10       30.10F
PHILLIPS       MOSUNNY   52  40  64 SW7       30.13F
TOMAHAWK       SUNNY     54  39  57 W7        30.15F
MEDFORD        SUNNY     52  41  66 W12       30.16F
MERRILL        PTSUNNY   53  42  67 W7        30.15F
$$

WIZ029-030-035-036-043>047-161600-
CENTRAL WISCONSIN

CITY           SKY/WX    TMP DP  RH WIND       PRES   REMARKS
WAUSAU         SUNNY     54  40  59 W8        30.16S
MOSINEE        SUNNY     54  43  66 W9        30.17F
MARSHFIELD     SUNNY     55  43  63 W8        30.17F
STEVENS POINT  SUNNY     51  39  62 W6        30.18F
WAUPACA        SUNNY     57  44  60 W5        30.18F
WAUTOMA        SUNNY     57  43  59 SW6       30.20F
WISC RAPIDS    SUNNY     55  43  63 NW6       30.20F
CAMP DOUGLAS   SUNNY     55  48  76 W6        30.20S
$$

WIZ011>013-019>022-031-037>040-048>050-161600-
NORTHEAST WISCONSIN

CITY           SKY/WX    TMP DP  RH WIND       PRES   REMARKS
ANTIGO         SUNNY     52  40  64 W10       30.16F
STURGEON BAY   SUNNY     55  39  54 W9        30.15F
GREEN BAY      SUNNY     54  43  66 W8        30.17F
MANITOWOC      SUNNY     55  44  66 W9        30.19S
APPLETON       SUNNY     52  43  71 W8        30.19S
CLINTONVILLE   SUNNY     54  41  62 W7        30.17F
OSHKOSH        SUNNY     54  44  69 W7        30.19S
$$

WIZ032>034-041-042-053>061-161600-
SOUTHWEST WISCONSIN

CITY           SKY/WX    TMP DP  RH WIND       PRES   REMARKS
LA CROSSE      SUNNY     52  45  77 S6        30.21S
SPARTA         SUNNY     47  46  99 CALM      30.22S
VIROQUA        FAIR      54  44  67 W3        30.21S
BOSCOBEL       SUNNY     50  46  86 W3        30.23F
PRAIRIE DU CHI MOSUNNY   49  48  96 CALM      30.23S
PLATTEVILLE    FAIR      53  49  85 CALM      30.24S
$$

WIZ056-057-062-063-064-067-068-161600-
SOUTH CENTRAL WISCONSIN

CITY           SKY/WX    TMP DP  RH WIND       PRES   REMARKS
BARABOO/DELLS  SUNNY     54  40  59 CALM      30.21S
LONE ROCK      MOSUNNY   52  46  80 CALM      30.23F
WATERTOWN      SUNNY     53  46  78 CALM      30.21F
MADISON        SUNNY     57  43  59 VRB5      30.22S
MIDDLETON      FAIR      57  44  62 W5        30.22S
MONROE         SUNNY     55  39  54 W3        30.22F
JANESVILLE     SUNNY     55  45  67 CALM      30.22R
$$

WIZ051-052-058>065-066-070>072-161600-
SOUTHEAST WISCONSIN

CITY           SKY/WX    TMP DP  RH WIND       PRES   REMARKS
MILWAUKEE      SUNNY     58  39  49 NW7       30.21S
WAUKESHA       SUNNY     54  41  62 W5        30.22R
MILWAUKEE/TIMM SUNNY     55  41  58 W6        30.22R
RACINE         SUNNY     57  42  57 NW6       30.22S
BURLINGTON     SUNNY     54  44  67 NW3       30.21F
KENOSHA        SUNNY     57  45  64 VRB3      30.22R
FOND DU LAC    SUNNY     55  44  66 VRB6      30.20S
SHEBOYGAN      SUNNY     56  42  59 W8        30.19S
WEST BEND      SUNNY     54  37  54 W5        30.20F
JUNEAU         SUNNY     53  44  73 SW5       30.22S
$$

LSZ147-162-161600-
LAKE SUPERIOR

STATION/POSITION TIME  TEMP    WIND        PRES    WAVE
                       AIR SEA DIR/SP/G            HT/PER
                 (UTC) (F)     (DEG/KT/KT) (MB)    (FT/S)
W MID LAKE BUOY  1450   50 47  240/ 17/ 19 1016.2F   5/ 5
DEVILS ISLAND    1500   52     240/ 22/ 26 1017.2F
PORT WING        1400   54     230/ 13/ 18 1018.6
SAXON HARBOR     1440   56     230/ 10/ 21 1018.6F
$$

LMZ867-665-643>646-161600-
LAKE MICHIGAN

STATION/POSITION TIME  TEMP    WIND        PRES    WAVE
                       AIR SEA DIR/SP/G            HT/PER
                 (UTC) (F)     (DEG/KT/KT) (MB)    (FT/S)
N MID LAKE BUOY  1450   53 59  250/ 10/ 12 1020.3F   1/ 3
NORTHPORT PIER   1400   54     270/  7/ 10 1020.3F
KEWAUNEE LAKESHO 1412                      1020.5
SHEBOYGAN LAKESH 1500   55 48  290/  9/ 12 1022.8R
PORT WASHINGTON  1400   55     290/  5/  7 1023.0S
ATWATER BUOY     1500   56     290/  6/ 10 1023.7
MILWAUKEE LAKESH 1500   56     310/  6/  8   N/A
S MID LAKE BUOY  1350   58 64  330/ 10/ 12 1022.5R   2/ 4
KENOSHA   LAKESH 1400   53     300/  3/  5 1022.7S
$$

TC  - TEMPERATURE IN CELSIUS
VSB - VISIBILITY IN STATUTE MILES
WCI - WIND CHILL INDEX
HX  - HEAT INDEX




USA.gov is the U.S. government's official web portal to all federal, state and local government web resources and services.